Hourly Data

Hourly Data Report for July 22, 2014

All times are specified in Local Standard Time (LST). Add 1 hour to adjust for Daylight Saving Time where and when it is observed.

Metadata including Station Name, Province, Latitude, Longitude, Elevation, Climate ID, WMO ID, TC ID
SASKATOON INTL A
SASKATCHEWAN
Latitude: 52°10'15.000" N Longitude: 106°42'00.000" W Elevation: 504.10 m
Climate ID: 4057152 WMO ID: 71866 TC ID: YXE
Hourly Data Report for July 22, 2014
Temp Definition
°C

Dew Point Temp Definition
°C

Rel Hum Definition
%

Wind Dir Definition
10's deg
Wind Spd Definition
km/h

Visibility Definition
km

Stn Press Definition
kPa

Hmdx Definition

Wind Chill Definition

Weather Definition

00:00 Legend Double Dagger 15.2 12.7 85 36 2 24.1 95.88 Mainly Clear
01:00 Legend Double Dagger 14.2 12.3 88 28 4 24.1 95.93 LegendNANA
02:00 Legend Double Dagger 12.1 11.8 98 24 4 24.1 95.98 LegendNANA
03:00 Legend Double Dagger 11.6 11.0 96 32 8 24.1 96.02 Clear
04:00 Legend Double Dagger 11.6 11.1 97 23 10 24.1 96.09 LegendNANA
05:00 Legend Double Dagger 9.9 9.8 99 28 4 12.9 96.17 LegendNANA
06:00 Legend Double Dagger 9.9 9.8 99 29 4 12.9 96.19 Mainly Clear
07:00 Legend Double Dagger 12.8 12.7 99 26 5 16.1 96.24 LegendNANA
08:00 Legend Double Dagger 15.5 13.6 88   0 24.1 96.27 LegendNANA
09:00 Legend Double Dagger 18.8 13.9 73 36 3 24.1 96.31 Mainly Clear
10:00 Legend Double Dagger 21.1 13.7 62 14 3 24.1 96.36 LegendNANA
11:00 Legend Double Dagger 23.0 12.2 50 10 5 24.1 96.41 25 LegendNANA
12:00 Legend Double Dagger 22.3 11.8 51 2 3 24.1 96.42 Mainly Clear
13:00 Legend Double Dagger 23.3 11.8 48 35 5 24.1 96.42 25 LegendNANA
14:00 Legend Double Dagger 24.2 12.0 46 4 14 24.1 96.44 26 LegendNANA
15:00 Legend Double Dagger 25.2 13.0 46 36 1 24.1 96.45 28 Mostly Cloudy
16:00 Legend Double Dagger 25.0 11.4 42 13 7 24.1 96.44 27 LegendNANA
17:00 Legend Double Dagger 24.8 13.2 48 10 9 24.1 96.42 28 LegendNANA
18:00 Legend Double Dagger 24.0 12.8 49 12 14 24.1 96.41 27 Mostly Cloudy
19:00 Legend Double Dagger 24.5 13.3 49 10 18 24.1 96.41 27 LegendNANA
20:00 Legend Double Dagger 22.4 13.3 56 11 16 24.1 96.42 25 LegendNANA
21:00 Legend Double Dagger 21.0 13.1 60 13 11 24.1 96.42 Mostly Cloudy
22:00 Legend Double Dagger 19.7 13.9 69 13 12 24.1 96.45 LegendNANA
23:00 Legend Double Dagger 19.5 14.4 72 13 17 24.1 96.47 LegendNANA

Notes on Data Quality.

Legend
  • M = Missing
  • E = Estimated
  • NA = Not Available
  • ‡ = Partner data that is not subject to review by the National Climate Archives